CW7200 Weather Reports


Display with metric or nautical units.
time (UTC)temp
F
wind
direction
speed
MPH
gust
MPH
rain 1hr
in
rain 24hr
in
rain mn
in
humidity
%
barometer
mb
20260507100004 65 165 3.0 12.0 0.00 0.00 0.00 70 1012.2
20260507095617 65 165 3.0 11.0 0.00 0.00 0.00 69 1012.3
20260507094504 64 182 5.0 10.0 0.00 0.00 0.00 70 1012.4
20260507093604 64 213 6.0 13.0 0.00 0.00 0.00 69 1012.6
20260507092704 65 186 5.0 12.0 0.00 0.00 0.00 67 1012.4
20260507091804 65 166 4.0 12.0 0.00 0.00 0.00 70 1012.5
20260507090904 64 218 3.0 11.0 0.00 0.00 0.00 73 1012.6
20260507090004 63 186 3.0 11.0 0.00 0.00 0.00 72 1012.6
20260507085403 63 188 3.0 11.0 0.00 0.00 0.00 72 1012.5
20260507084504 63 226 1.0 5.0 0.00 0.00 0.00 74 1012.6
20260507083603 62 53 2.0 10.0 0.00 0.00 0.00 77 1012.5
20260507082704 61 269 0.0 1.0 0.00 0.00 0.00 77 1012.6
20260507081804 61 0 0.0 0.0 0.00 0.00 0.00 77 1012.5
20260507080903 60 269 0.0 1.0 0.00 0.00 0.00 78 1012.5
20260507080004 60 270 0.0 2.0 0.00 0.00 0.00 78 1012.3
20260507075404 60 0 0.0 0.0 0.00 0.00 0.00 79 1012.3
20260507074503 60 0 0.0 0.0 0.00 0.00 0.00 80 1012.3
20260507073818 60 0 0.0 0.0 0.00 0.00 0.00 81 1012.2
20260507072703 59 0 0.0 0.0 0.00 0.00 0.00 80 1012.2
20260507071804 59 270 0.0 4.0 0.00 0.00 0.00 80 1012.3
20260507070904 59 270 1.0 5.0 0.00 0.00 0.00 79 1012.2
20260507070008 59 271 1.0 5.0 0.00 0.00 0.00 80 1012.0
20260507065403 59 272 1.0 6.0 0.00 0.00 0.00 80 1012.1
20260507064504 58 294 0.0 4.0 0.00 0.00 0.00 81 1012.0
20260507063603 58 0 0.0 0.0 0.00 0.00 0.00 84 1011.8
20260507062703 58 0 0.0 0.0 0.00 0.00 0.00 85 1011.7
20260507061804 57 0 0.0 0.0 0.00 0.00 0.00 86 1011.7
20260507060904 57 0 0.0 0.0 0.00 0.00 0.00 86 1011.8
20260507060004 57 0 0.0 0.0 0.00 0.00 0.00 86 1011.6
20260507055403 56 0 0.0 0.0 0.00 0.00 0.00 86 1011.6
20260507054504 56 0 0.0 0.0 0.00 0.00 0.00 87 1011.5
20260507053603 56 0 0.0 0.0 0.00 0.00 0.00 87 1011.4
20260507052703 56 0 0.0 0.0 0.00 0.00 0.00 87 1011.3
20260507051803 56 0 0.0 0.0 0.00 0.00 0.00 86 1011.3
20260507050904 56 0 0.0 0.0 0.00 0.00 0.00 85 1011.3
20260507050005 56 297 0.0 1.0 0.00 0.00 0.00 85 1011.2
20260507045403 56 297 0.0 1.0 0.00 0.00 0.00 84 1011.1
20260507044504 56 0 0.0 0.0 0.00 0.00 0.00 83 1011.1
20260507043603 56 0 0.0 0.0 0.00 0.00 0.00 83 1010.9
20260507042703 56 297 0.0 6.0 0.00 0.00 0.00 82 1010.7
20260507041804 56 297 2.0 9.0 0.00 0.00 0.00 82 1010.8
20260507040903 56 297 1.0 6.0 0.00 0.00 0.00 82 1010.7
20260507040004 56 293 1.0 6.0 0.00 0.00 0.00 82 1010.6
20260507035404 56 290 2.0 11.0 0.00 0.00 0.00 82 1010.7
20260507034718 56 285 3.0 11.0 0.00 0.00 0.00 82 1010.5
20260507033603 56 284 2.0 10.0 0.00 0.00 0.00 82 1010.5
20260507032703 56 279 5.0 9.0 0.00 0.00 0.00 81 1010.4
20260507031804 56 291 4.0 9.0 0.00 0.00 0.00 81 1010.3
20260507030903 56 295 4.0 8.0 0.00 0.00 0.00 81 1010.4
20260507030004 56 297 4.0 11.0 0.00 0.00 0.00 81 1010.4
20260507025403 56 305 3.0 10.0 0.00 0.00 0.00 81 1010.3
20260507024503 56 291 3.0 11.0 0.00 0.00 0.00 81 1010.3
20260507023603 56 288 3.0 9.0 0.00 0.00 0.00 81 1010.4
20260507022703 56 288 2.0 7.0 0.00 0.00 0.00 81 1010.3
20260507021803 56 285 3.0 12.0 0.00 0.00 0.00 82 1010.4
20260507020903 56 282 4.0 9.0 0.00 0.00 0.00 82 1010.4
20260507020004 55 279 3.0 10.0 0.00 0.00 0.00 82 1010.3
20260507015617 55 281 3.0 9.0 0.00 0.00 0.00 83 1010.4
20260507014503 55 272 1.0 5.0 0.00 0.00 0.00 84 1010.1
20260507013604 55 269 1.0 7.0 0.00 0.00 0.00 84 1010.2
20260507012703 56 0 0.0 0.0 0.00 0.00 0.00 83 1010.2
20260507012021 56 269 0.0 5.0 0.00 0.00 0.00 83 1010.1
20260507010903 56 269 1.0 6.0 0.00 0.00 0.00 82 1010.2
20260507010004 56 269 0.0 5.0 0.00 0.00 0.00 82 1010.2
20260507005403 57 269 0.0 6.0 0.00 0.00 0.00 82 1010.3
20260507004504 58 0 0.0 0.0 0.00 0.00 0.00 81 1010.3
20260507003603 58 268 0.0 5.0 0.00 0.00 0.00 80 1010.3
20260507002920 58 268 1.0 11.0 0.00 0.00 0.00 79 1010.4
20260507001803 59 269 2.0 9.0 0.00 0.00 0.00 77 1010.5
20260507000904 59 255 4.0 9.0 0.00 0.00 0.00 77 1010.3
20260507000004 59 243 5.0 10.0 0.00 0.00 0.00 77 1010.5
20260506235404 59 246 3.0 9.0 0.00 0.00 0.00 77 1010.6
20260506234721 59 214 2.0 7.0 0.00 0.00 0.00 78 1010.5
20260506233603 60 249 4.0 10.0 0.00 0.00 0.00 77 1010.7
20260506232704 60 261 6.0 10.0 0.00 0.00 0.00 77 1010.6
20260506231804 60 255 4.0 10.0 0.00 0.00 0.00 77 1010.7
20260506230904 59 265 4.0 10.0 0.00 0.00 0.00 78 1010.7
20260506230004 59 256 1.0 6.0 0.00 0.00 0.00 80 1010.6
20260506225404 60 239 2.0 7.0 0.00 0.00 0.00 79 1010.6
20260506224504 59 198 3.0 11.0 0.00 0.00 0.00 78 1010.5
20260506223603 59 250 5.0 10.0 0.00 0.00 0.00 79 1010.4
20260506222921 59 262 4.0 13.0 0.00 0.00 0.00 79 1010.3
20260506221804 60 263 4.0 9.0 0.00 0.00 0.00 80 1010.2
20260506221121 60 268 5.0 9.0 0.00 0.00 0.00 80 1010.1
20260506220022 60 293 3.0 10.0 0.00 0.00 0.00 81 1010.1
20260506215403 60 275 3.0 10.0 0.00 0.00 0.00 81 1010.0
20260506214504 60 278 4.0 9.0 0.00 0.00 0.00 80 1009.9
20260506213603 60 278 5.0 12.0 0.00 0.00 0.00 79 1010.0
20260506212703 60 275 4.0 10.0 0.00 0.00 0.00 78 1010.0
20260506211803 60 285 3.0 8.0 0.00 0.00 0.00 79 1009.9
20260506210904 60 271 2.0 6.0 0.00 0.00 0.00 79 1009.7
20260506210004 60 276 1.0 7.0 0.00 0.00 0.00 80 1009.7
20260506205403 60 280 2.0 10.0 0.00 0.00 0.00 79 1009.7
20260506204504 60 300 1.0 10.0 0.00 0.00 0.00 79 1009.5
20260506203604 60 286 3.0 10.0 0.00 0.00 0.00 78 1009.5
20260506202703 60 279 4.0 11.0 0.00 0.00 0.00 77 1009.6
20260506202020 60 252 2.0 8.0 0.00 0.00 0.00 78 1009.6
20260506200904 60 175 0.0 5.0 0.00 0.00 0.00 78 1009.4
20260506200004 60 186 2.0 8.0 0.00 0.00 0.00 78 1009.4
20260506195403 60 277 0.0 8.0 0.00 0.00 0.00 78 1009.3
20260506194504 60 279 1.0 6.0 0.00 0.00 0.00 77 1009.4
20260506193603 61 307 2.0 14.0 0.00 0.00 0.00 77 1009.3
20260506192703 60 30 2.0 9.0 0.00 0.00 0.00 77 1009.1
20260506192020 60 220 3.0 13.0 0.00 0.00 0.00 78 1009.2
20260506191117 60 184 2.0 13.0 0.00 0.00 0.00 78 1009.0
20260506190004 60 158 1.0 8.0 0.00 0.00 0.00 77 1008.8
20260506185621 60 160 1.0 8.0 0.00 0.00 0.00 78 1008.8
20260506184504 60 192 1.0 9.0 0.00 0.00 0.00 78 1008.6
20260506183603 61 156 0.0 9.0 0.00 0.00 0.00 77 1008.6
20260506182704 61 177 2.0 8.0 0.00 0.00 0.00 77 1008.6
20260506181804 61 285 2.0 8.0 0.00 0.00 0.00 77 1008.6
20260506180904 62 274 3.0 9.0 0.00 0.00 0.00 77 1008.5
20260506180005 62 265 1.0 9.0 0.00 0.00 0.00 76 1008.5
20260506175617 62 158 1.0 4.0 0.00 0.00 0.00 76 1008.5
20260506174504 62 248 7.0 19.0 0.00 0.00 0.00 76 1008.4
20260506173603 62 236 3.0 14.0 0.00 0.00 0.00 76 1008.6
20260506172704 62 272 4.0 9.0 0.00 0.00 0.00 76 1008.4
20260506172022 62 263 3.0 9.0 0.00 0.00 0.00 77 1008.5
20260506170903 62 280 2.0 7.0 0.00 0.00 0.00 77 1008.4
20260506170004 62 279 5.0 13.0 0.00 0.00 0.00 76 1008.6
20260506165404 62 269 4.0 14.0 0.00 0.00 0.00 76 1008.5
20260506164504 63 268 3.0 10.0 0.00 0.00 0.00 75 1008.6
20260506163603 63 274 4.0 9.0 0.00 0.00 0.00 74 1008.5
20260506162703 63 270 2.0 8.0 0.00 0.00 0.00 73 1008.7
20260506161803 63 271 4.0 8.0 0.00 0.00 0.00 73 1008.8
20260506161119 64 261 2.0 7.0 0.00 0.00 0.00 73 1009.0
20260506160004 64 276 4.0 18.0 0.00 0.00 0.00 72 1008.9
20260506155403 64 280 4.0 10.0 0.00 0.00 0.00 73 1008.9
20260506154504 63 271 5.0 13.0 0.00 0.00 0.00 72 1009.1
20260506153603 63 263 3.0 10.0 0.00 0.00 0.00 72 1009.1
20260506152703 64 251 4.0 20.0 0.00 0.00 0.00 72 1009.0
20260506151803 64 256 5.0 12.0 0.00 0.00 0.00 71 1009.0
20260506150904 64 280 4.0 13.0 0.00 0.00 0.00 71 1009.0
20260506150222 64 269 5.0 13.0 0.00 0.00 0.00 72 1009.1
20260506145403 64 264 6.0 21.0 0.00 0.00 0.00 71 1009.1
20260506144504 64 258 2.0 21.0 0.00 0.00 0.00 71 1009.2
20260506143603 64 265 1.0 4.0 0.00 0.00 0.00 72 1009.0
20260506142703 64 278 3.0 13.0 0.00 0.00 0.00 71 1009.2
20260506142018 64 308 1.0 5.0 0.00 0.00 0.00 72 1009.3
20260506140904 64 309 1.0 5.0 0.00 0.00 0.00 73 1009.4
20260506140004 64 313 2.0 7.0 0.00 0.00 0.00 71 1009.3
20260506135404 64 284 5.0 13.0 0.00 0.00 0.00 71 1009.4
20260506134504 64 274 4.0 14.0 0.00 0.00 0.00 72 1009.5
20260506133603 63 242 3.0 9.0 0.00 0.00 0.00 71 1009.6
20260506132704 63 265 3.0 9.0 0.00 0.00 0.00 72 1009.7
20260506132019 63 239 2.0 9.0 0.00 0.00 0.00 72 1009.7
20260506130904 63 201 3.0 13.0 0.00 0.00 0.00 71 1009.8
20260506130005 63 197 3.0 13.0 0.00 0.00 0.00 71 1009.9
20260506125620 63 243 2.0 11.0 0.00 0.00 0.00 71 1009.9
20260506124718 63 187 4.0 11.0 0.00 0.00 0.00 72 1010.0
20260506123603 63 183 4.0 13.0 0.00 0.00 0.00 71 1010.1
20260506122917 64 210 3.0 12.0 0.00 0.00 0.00 71 1010.0
20260506121804 64 164 1.0 9.0 0.00 0.00 0.00 71 1010.1
20260506121117 64 163 2.0 9.0 0.00 0.00 0.00 70 1010.0
20260506120004 64 156 3.0 10.0 0.00 0.00 0.00 70 1010.2
20260506115404 64 158 3.0 11.0 0.00 0.00 0.00 70 1010.1
20260506114504 64 161 6.0 12.0 0.00 0.00 0.00 71 1010.2
20260506113603 64 157 5.0 19.0 0.00 0.00 0.00 70 1010.2
20260506112703 64 160 7.0 19.0 0.00 0.00 0.00 70 1010.2
20260506111804 64 158 7.0 15.0 0.00 0.00 0.00 69 1010.3
20260506110904 66 164 5.0 16.0 0.00 0.00 0.00 68 1010.4
20260506110220 67 193 3.0 8.0 0.00 0.00 0.00 70 1010.4
20260506105403 66 230 4.0 9.0 0.00 0.00 0.00 66 1010.4
20260506104504 66 218 4.0 11.0 0.00 0.00 0.00 69 1010.5
20260506103603 64 195 6.0 15.0 0.00 0.00 0.00 73 1010.7
20260506102703 65 218 4.0 15.0 0.00 0.00 0.00 71 1010.7
20260506101804 66 215 5.0 15.0 0.00 0.00 0.00 70 1010.7
20260506100904 66 262 6.0 13.0 0.00 0.00 0.00 72 1010.7